KC4LW Weather Reports


Display with metric or nautical units.
time (UTC)temp
F
wind
direction
speed
MPH
gust
MPH
rain 1hr
in
rain 24hr
in
rain mn
in
humidity
%
barometer
mb
20260906051556 80 265 1.0 7.0 0.00 0.00 0.00 96 1010.4
20260906050104 80 259 3.0 5.0 0.00 0.00 0.00 96 1010.4
20260906044601 80 229 2.0 6.0 0.00 0.00 0.00 96 1010.7
20260906043102 80 223 2.0 7.0 0.00 0.00 0.00 96 1010.6
20260906041556 80 232 2.0 4.0 0.00 0.00 0.00 96 1010.8
20260906040116 80 229 1.0 5.0 0.00 0.00 0.00 95 1011.0
20260906034601 80 230 1.0 4.0 0.00 0.00 0.00 95 1011.1
20260906033117 80 255 1.0 7.0 0.00 0.00 0.00 95 1011.2
20260906031612 80 254 2.0 5.0 0.00 0.00 0.00 95 1011.2
20260906024607 80 0 0.0 7.0 0.00 0.00 0.00 94 1011.4
20260906023101 80 209 1.0 7.0 0.00 0.00 0.00 93 1011.3
20260906021607 80 0 2.0 7.0 0.00 0.00 0.00 92 1011.3
20260906014558 80 279 1.0 4.0 0.00 0.00 0.00 89 1010.9
20260906013106 81 225 0.0 5.0 0.00 0.00 0.00 89 1010.3
20260906011607 81 219 0.0 2.0 0.00 0.00 0.00 88 1010.5
20260906010105 81 0 0.0 3.0 0.00 0.00 0.00 88 1010.5
20260906004604 82 187 0.0 2.0 0.00 0.00 0.00 88 1010.3
20260906003056 82 0 0.0 3.0 0.00 0.00 0.00 87 1010.1
20260906001602 82 0 0.0 1.0 0.00 0.00 0.00 87 1009.9
20260906000107 83 0 0.0 2.0 0.00 0.00 0.00 86 1009.7
20260905234605 83 217 0.0 1.0 0.00 0.00 0.00 85 1009.8
20260905233105 84 0 0.0 2.0 0.00 0.00 0.00 84 1010.2
20260905231602 84 217 1.0 4.0 0.00 0.00 0.00 84 1010.1
20260905230100 84 0 0.0 2.0 0.00 0.00 0.00 85 1010.0
20260905224613 84 165 0.0 4.0 0.00 0.00 0.00 84 1010.0
20260905223100 84 0 1.0 5.0 0.00 0.00 0.00 85 1010.3
20260905221601 84 132 1.0 5.0 0.00 0.00 0.00 85 1010.7
20260905220059 84 178 0.0 4.0 0.00 0.00 0.00 84 1010.7
20260905214600 85 0 1.0 3.0 0.00 0.00 0.00 83 1010.7
20260905213108 85 91 0.0 5.0 0.00 0.00 0.00 80 1010.8
20260905211611 85 211 1.0 6.0 0.00 0.00 0.00 80 1010.7
20260905210104 85 0 0.0 4.0 0.00 0.00 0.00 80 1010.8
20260905204611 86 47 1.0 8.0 0.00 0.00 0.00 78 1010.8
20260905203119 87 0 1.0 4.0 0.00 0.00 0.00 81 1010.7
20260905201605 89 75 1.0 7.0 0.00 0.00 0.00 78 1010.7
20260905200120 91 269 2.0 7.0 0.00 0.00 0.00 71 1010.7
20260905194607 93 233 2.0 6.0 0.00 0.00 0.00 69 1010.8
20260905193103 93 281 2.0 9.0 0.00 0.00 0.00 68 1010.8
20260905191559 93 250 4.0 12.0 0.00 0.00 0.00 70 1011.2
20260905190106 92 288 5.0 11.0 0.00 0.00 0.00 70 1011.2
20260905184616 89 257 1.0 7.0 0.00 0.00 0.00 77 1011.2
20260905183058 88 0 1.0 4.0 0.00 0.00 0.00 84 1011.1
20260905181558 88 121 2.0 6.0 0.00 0.00 0.00 83 1011.6
20260905180106 88 0 1.0 7.0 0.00 0.00 0.00 83 1011.6
20260905174558 89 84 1.0 4.0 0.00 0.00 0.00 81 1011.8
20260905173105 90 24 1.0 4.0 0.00 0.00 0.00 77 1012.1
20260905171554 89 294 1.0 3.0 0.00 0.00 0.00 79 1012.1
20260905170122 87 114 1.0 6.0 0.00 0.00 0.00 81 1012.4
20260905164559 87 352 1.0 4.0 0.00 0.00 0.00 85 1012.8
20260905163104 85 299 0.0 2.0 0.00 0.00 0.00 88 1013.1
20260905161603 85 0 0.0 4.0 0.00 0.00 0.00 89 1013.3
20260905160104 84 0 0.0 2.0 0.00 0.00 0.00 90 1013.6
20260905154615 84 274 2.0 5.0 0.00 0.00 0.00 88 1013.6
20260905153105 85 281 3.0 9.0 0.00 0.00 0.00 85 1013.8
20260905151624 87 306 2.0 10.0 0.00 0.00 0.00 84 1013.5
20260905150107 86 300 2.0 7.0 0.00 0.00 0.00 86 1013.5
20260905144606 85 223 3.0 10.0 0.00 0.00 0.00 86 1013.6
20260905143059 85 299 5.0 10.0 0.00 0.00 0.00 86 1013.6
20260905141604 86 237 2.0 7.0 0.00 0.00 0.00 86 1013.5
20260905140105 84 257 3.0 7.0 0.00 0.00 0.00 89 1013.8
20260905134605 83 242 2.0 6.0 0.00 0.00 0.00 91 1013.7
20260905133104 82 308 2.0 9.0 0.00 0.00 0.00 93 1013.6
20260905131606 81 0 2.0 7.0 0.00 0.00 0.00 95 1013.4
20260905130101 80 336 3.0 9.0 0.00 0.00 0.00 97 1013.7
20260905124603 79 236 2.0 8.0 0.00 0.00 0.00 99 1013.6
20260905123058 78 282 1.0 5.0 0.00 0.00 0.00 99 1013.4
20260905121605 77 270 1.0 4.0 0.00 0.00 0.00 99 1013.5
20260905114603 76 233 0.0 5.0 0.00 0.00 0.00 99 1013.0
20260905113059 76 250 2.0 5.0 0.00 0.00 0.00 99 1012.6
20260905111557 76 210 1.0 4.0 0.00 0.00 0.00 99 1012.7
20260905110112 76 267 0.0 4.0 0.00 0.00 0.00 99 1012.6
20260905104602 76 265 0.0 5.0 0.00 0.00 0.00 99 1012.3
20260905103058 76 269 2.0 5.0 0.00 0.00 0.00 99 1012.2
20260905101608 76 239 2.0 4.0 0.00 0.00 0.00 99 1012.0
20260905100104 76 209 0.0 3.0 0.00 0.00 0.00 99 1012.3
20260905094557 76 227 1.0 3.0 0.00 0.00 0.00 99 1012.3
20260905093116 76 231 0.0 3.0 0.00 0.00 0.00 99 1012.2
20260905091607 76 0 0.0 1.0 0.00 0.00 0.00 98 1012.2
20260905090103 76 215 0.0 2.0 0.00 0.00 0.00 98 1012.3
20260905084604 76 215 0.0 3.0 0.00 0.00 0.00 98 1012.2
20260905083104 76 240 1.0 4.0 0.00 0.00 0.00 98 1011.8
20260905081554 76 235 1.0 3.0 0.00 0.00 0.00 98 1011.9
20260905080104 76 298 1.0 3.0 0.00 0.00 0.00 98 1011.9
20260905074600 76 0 0.0 3.0 0.00 0.00 0.00 98 1012.0
20260905073058 76 238 0.0 5.0 0.00 0.00 0.00 98 1012.1
20260905071555 76 215 1.0 4.0 0.00 0.00 0.00 98 1012.3
20260905070111 75 0 0.0 4.0 0.00 0.00 0.00 97 1012.5
20260905064558 76 241 1.0 4.0 0.00 0.00 0.00 97 1012.6
20260905063100 76 214 1.0 4.0 0.00 0.00 0.00 97 1012.9
20260905061608 76 0 0.0 3.0 0.00 0.00 0.00 97 1012.9
20260905054558 76 279 2.0 5.0 0.00 0.00 0.00 96 1013.2
20260905053056 76 0 0.0 2.0 0.00 0.00 0.00 96 1013.3